Weather History for Casper, WY

Change the Weather History Date:

Saturday, November 16, 2013

  Actual Average Record
Temperature  
Mean Temperature 34 °F 33 °F  
Max Temperature 40 °F 44 °F 67 °F (1999)
Min Temperature 27 °F 22 °F -11 °F (1959)
Degree Days  
Heating Degree Days 31 32  
Month to date heating degree days 452 457  
Since 1 July heating degree days 1341 1356  
Cooling Degree Days 0 0  
Month to date cooling degree days 0 0  
Year to date cooling degree days 618 422  
Moisture  
Dew Point 19 °F    
Average Humidity 53    
Maximum Humidity 61    
Minimum Humidity 44    
Precipitation  
Precipitation 0.00 in 0.03 in 0.35 in (1958)
Month to date precipitation 0.01 0.46  
Year to date precipitation 13.71 11.73  
Snow  
Snow 0.00 in 0.40 in - ()
Month to date snowfall 0.1 5.4  
Since 1 July snowfall 21.3 14.6  
Since 1 September snowfall 21.3 14.6  
Snow Depth 0.00 in    
Sea Level Pressure  
Sea Level Pressure 29.38 in    
Wind  
Wind Speed 24 mph (SW)    
Max Wind Speed 43 mph    
Max Gust Speed 53 mph    
Visibility 10 miles    
Events      
T = Trace of Precipitation, MM = Missing Value Source: NWS Daily Summary

Daily Weather History Graph

Daily Weather History Graph

Search for Another Location

Airport:

Trip Planner

Search our weather history database for the weather conditions in past years. The results will help you decide how hot, cold, wet, or windy it might be!

Date:

Astronomy

Nov. 16, 2013 Rise Set
Actual Time 6:59 AM MST 4:41 PM MST
Civil Twilight 6:29 AM MST 5:11 PM MST
Nautical Twilight 5:54 AM MST 5:46 PM MST
Astronomical Twilight 5:21 AM MST 6:19 PM MST
Moon 4:19 PM MST 5:57 AM MST
Length of Visible Light 10h 42m
Length of Day
9h 41m
Waxing Gibbous, 99% of the Moon is Illuminated
Nov 16
Waxing Gibbous
Nov 17
Full
Nov 25
Last Quarter
Dec 2
New
Dec 9
First Quarter

Hourly Weather History & Observations

Time (MST) Temp. Windchill Dew Point Humidity Pressure Visibility Wind Dir Wind Speed Gust Speed Precip Events Conditions
12:53 AM 30.0 °F 18.7 °F 14.0 °F 51% 29.39 in 10.0 mi SW 16.1 mph - N/A   Clear
1:53 AM 28.9 °F 16.9 °F 12.9 °F 51% 29.39 in 10.0 mi SSW 17.3 mph - N/A   Clear
2:53 AM 30.0 °F 19.5 °F 12.9 °F 49% 29.39 in 10.0 mi SW 13.8 mph - N/A   Clear
3:53 AM 28.9 °F 16.1 °F 14.0 °F 54% 29.39 in 10.0 mi SSW 19.6 mph 28.8 mph N/A   Clear
4:53 AM 30.9 °F 18.1 °F 15.1 °F 52% 29.38 in 10.0 mi SW 21.9 mph 34.5 mph N/A   Scattered Clouds
5:53 AM 30.9 °F 19.1 °F 17.1 °F 57% 29.38 in 10.0 mi SW 18.4 mph 24.2 mph N/A   Overcast
6:53 AM 33.1 °F 20.6 °F 17.1 °F 52% 29.37 in 10.0 mi SW 23.0 mph 33.4 mph N/A   Overcast
7:53 AM 35.1 °F 21.8 °F 18.0 °F 50% 29.37 in 10.0 mi SW 29.9 mph 41.4 mph N/A   Overcast
8:53 AM 35.1 °F 21.6 °F 19.9 °F 54% 29.37 in 10.0 mi SW 31.1 mph 49.5 mph N/A   Overcast
9:53 AM 37.9 °F 24.6 °F 19.9 °F 48% 29.37 in 10.0 mi SW 36.8 mph 50.6 mph N/A   Overcast
10:53 AM 39.0 °F 26.6 °F 21.0 °F 49% 29.35 in 9.0 mi SW 33.4 mph 49.5 mph N/A   Clear
11:53 AM 39.9 °F 27.6 °F 21.0 °F 47% 29.34 in 10.0 mi SW 34.5 mph 47.2 mph N/A   Clear
12:53 PM 39.0 °F 26.1 °F 19.9 °F 46% 29.33 in 10.0 mi SW 36.8 mph 46.0 mph N/A   Overcast
1:53 PM 39.9 °F 28.0 °F 19.9 °F 45% 29.33 in 10.0 mi SW 32.2 mph 44.9 mph N/A   Clear
2:53 PM 39.9 °F 28.0 °F 19.9 °F 45% 29.33 in 10.0 mi WSW 32.2 mph 42.6 mph N/A   Clear
3:53 PM 39.9 °F 29.5 °F 19.9 °F 45% 29.34 in 10.0 mi SW 24.2 mph 34.5 mph N/A   Clear
4:53 PM 37.0 °F 25.9 °F 21.0 °F 52% 29.37 in 10.0 mi SW 23.0 mph 35.7 mph N/A   Clear
5:53 PM 36.0 °F 25.0 °F 19.9 °F 52% 29.38 in 10.0 mi WSW 20.7 mph 27.6 mph N/A   Clear
6:53 PM 35.1 °F 25.2 °F 19.9 °F 54% 29.40 in 10.0 mi WSW 16.1 mph - N/A   Clear
7:53 PM 34.0 °F 23.4 °F 19.9 °F 56% 29.40 in 10.0 mi WSW 17.3 mph - N/A   Clear
8:53 PM 34.0 °F 22.7 °F 21.0 °F 59% 29.41 in 10.0 mi WSW 19.6 mph 26.5 mph N/A   Clear
9:53 PM 33.1 °F 22.2 °F 21.0 °F 61% 29.41 in 10.0 mi WSW 17.3 mph - N/A   Clear
10:53 PM 33.1 °F 21.2 °F 19.0 °F 56% 29.42 in 10.0 mi WSW 20.7 mph - N/A   Clear
11:53 PM 32.0 °F 18.9 °F 21.0 °F 64% 29.44 in 10.0 mi WSW 24.2 mph 29.9 mph N/A   Clear